Flag for U.S.A. Weather past 2 weeks in Stockton, California, U.S.A.

Now
70 °F

Clear.


Feels Like: 77 °F
Forecast: 64 / 99 °F
Wind: 5 mph from East

Location: Stockton Metropolitan Airport

Current Time: Jul 26, 2014 at 3:16:54 AM

Latest Report: Jul 26, 2014 at 1:55 AM


Visibility: 10 mi

Pressure: 29.83 "Hg

Humidity: 51%

Dew point: 51 °F

Location of StocktonLocation

Historic Weather in Stockton — Graph

°F

Stockton temperature yesterday

Maximum temperature yesterday: 101 °F (at 4:55 PM)
Minimum temperature yesterday: 61 °F (at 5:55 AM)
Average temperature yesterday: 82 °F

Past Weeks' High & Low Weather Summary

 TemperatureHumidityPressure
High103 °F (Jul 14, 3:55 PM)90% (Jul 18, 4:55 AM)30.13 "Hg (Jul 18, 4:55 AM)
Low60 °F (Jul 12, 3:55 AM)8% (Jul 25, 4:55 PM)29.76 "Hg (Jul 25, 6:55 PM)
Average76 °F55%29.92 "Hg
* Reported Jul 11 1:55 AM — Jul 26 1:55 AM, Stockton, Weather by CustomWeather, © 2014

Note: Actual official high and low records may vary slightly from our data, if they occured in-between our weather recording intervals... More about our weather records

Advertising

Stockton weather history for previous 24 hours

 ConditionsComfort  
Time TempWeatherWind HumidityBarometerVisibility
1:55 AM
Jul 26
70 °FClear.5 mph51%29.83 "Hg10 mi
12:55 AM73 °FClear.7 mph44%29.83 "Hg10 mi
11:55 PM
Jul 25
78 °FClear.7 mph33%29.82 "Hg10 mi
10:55 PM79 °FClear.7 mph35%29.82 "Hg10 mi
9:55 PM82 °FClear.7 mph35%29.82 "Hg10 mi
8:55 PM89 °FSunny.16 mph24%29.79 "Hg10 mi
7:55 PM93 °FSunny.6 mph14%29.78 "Hg10 mi
6:55 PM99 °FSunny.9 mph8%29.76 "Hg10 mi
5:55 PM100 °FSunny.10 mph9%29.77 "Hg10 mi
4:55 PM101 °FSunny.9 mph8%29.78 "Hg10 mi
3:55 PM99 °FSunny.8 mph16%29.79 "Hg10 mi
2:55 PM99 °FSunny.6 mph16%29.81 "Hg10 mi
1:55 PM96 °FSunny.7 mph19%29.83 "Hg10 mi
12:55 PM95 °FSunny.6 mph23%29.83 "Hg10 mi
11:55 AM90 °FSunny.6 mph32%29.85 "Hg10 mi
10:55 AM86 °FSunny.5 mph32%29.85 "Hg10 mi
9:55 AM83 °FSunny.8 mph34%29.86 "Hg10 mi
8:55 AM79 °FSunny.8 mph39%29.85 "Hg9 mi
7:55 AM71 °FSunny.5 mph57%29.85 "Hg10 mi
6:55 AM64 °FClear.No wind73%29.83 "Hg10 mi
5:55 AM61 °FClear.3 mph75%29.81 "Hg10 mi
4:55 AM63 °FClear.No wind65%29.80 "Hg10 mi
3:55 AM64 °FClear.No wind68%29.80 "Hg10 mi
Weather by CustomWeather, © 2014

See weather overviewHow to use our weather pages